Temperature
7 6 7 7 7 9 8 8 8 9 9 8 7 8 8 9 9 9 9 10 11 12 12 12 12 12 12 11 11 11 11 10 10 10 10 10 9 9 9 9 9 9 9 9
6 6 7 7 7 8 8 8 8 8 8 8 7 7 8 8 8 9 9 10 11 11 12 12 12 11 11 11 11 10 10 10 10 10 9 9 9 9 9 9 9 8 8 8
7 7 7 7 7 7 7 7 8 8 8 7 7 8 8 8 8 9 10 10 11 11 12 12 11 11 11 11 10 10 10 10 9 9 9 9 9 9 8 8 8 8 8 8
6 7 7 7 7 7 7 8 8 8 7 6 7 7 7 7 7 7 8 9 10 11 12 11 11 11 11 10 10 10 10 10 9 9 9 8 8 8 8 8 8 7 7 7
6 7 7 7 7 8 7 7 6 7 6 6 5 6 7 7 8 8 7 8 10 11 11 11 11 11 11 10 10 10 10 9 9 9 8 8 8 8 7 7 7 7 7 7
6 7 7 7 7 7 6 5 5 4 4 5 5 5 6 6 7 8 7 8 9 10 10 10 10 10 10 10 10 9 9 9 9 8 8 8 8 7 7 7 7 6 6 6
6 6 7 7 6 6 6 6 5 5 4 5 5 5 6 7 7 7 7 8 9 9 10 10 10 10 10 9 9 9 9 9 9 8 8 8 7 7 6 6 6 6 6 6
5 5 6 6 6 5 5 6 5 6 5 5 4 4 6 6 6 7 7 8 8 9 9 10 10 10 9 9 9 9 9 9 8 8 7 7 7 6 6 6 6 5 5 5
5 5 6 6 6 6 5 5 5 4 4 4 4 4 5 6 6 6 6 7 8 9 9 9 9 9 9 9 9 8 8 8 8 7 7 7 6 6 6 6 5 5 5 5
4 5 5 5 6 6 5 4 3 4 5 6 6 5 6 7 7 6 5 6 7 8 8 9 9 9 9 9 8 8 8 7 7 7 6 6 6 6 5 5 5 5 5 5
4 4 4 5 5 5 4 4 4 3 3 4 5 6 6 6 6 6 5 6 7 8 8 8 8 8 8 8 8 8 7 7 7 6 6 6 6 5 5 5 5 5 4 4
4 3 3 4 4 5 5 4 3 4 3 2 3 5 6 5 5 5 5 6 7 7 7 7 8 8 8 8 7 7 7 6 6 6 6 5 5 5 5 4 4 4 4 4
3 3 3 4 4 3 3 3 3 2 1 1 2 5 6 4 5 5 5 5 6 7 7 7 7 7 7 7 7 6 6 6 5 5 5 5 5 4 4 4 4 4 4 4
3 2 3 4 4 2 2 2 2 2 2 2 2 4 5 5 5 4 5 5 6 6 6 6 6 6 6 6 6 6 5 5 5 5 4 4 4 4 4 4 4 4 3 3
3 2 2 3 3 2 3 3 2 2 3 3 3 3 5 5 4 4 4 5 5 5 5 5 6 6 6 6 5 5 5 4 4 4 4 4 4 3 3 3 3 3 3 3
1 2 2 2 3 2 3 3 3 3 3 3 3 3 4 4 4 4 4 4 4 5 5 5 5 5 5 5 5 4 4 4 4 4 3 3 3 3 3 3 2 2 2 2
0 1 1 1 1 2 2 2 3 2 2 3 4 4 3 3 3 3 3 4 4 4 4 4 4 4 4 4 3 3 3 3 3 3 3 3 2 2 2 2 2 1 1 1
-0 -0 -0 -0 1 2 3 2 3 3 2 2 3 3 2 3 3 4 4 4 4 4 3 3 3 3 3 3 2 2 2 2 2 2 2 2 2 1 1 1 1 1 1 1
0 -0 -1 -0 0 1 2 2 1 2 2 1 2 1 2 2 2 2 3 3 3 3 3 2 2 2 2 2 2 2 2 2 2 1 1 1 1 1 1 0 0 0 0 0
-0 -1 -1 -1 0 1 2 2 1 2 2 1 1 0 0 1 0 1 3 2 2 2 2 2 2 1 1 1 1 1 1 1 1 1 1 1 0 0 -0 -0 -0 -0 -1 -1
-1 -1 -1 -1 -0 -0 0 1 2 2 1 1 0 0 0 -0 1 1 2 2 2 1 1 1 1 1 1 0 0 0 0 0 -0 -0 -0 -0 -0 -0 -1 -1 -1 -1 -1 -1
-1 -1 -1 -2 -1 0 -0 0 0 0 0 0 0 1 0 1 1 1 1 1 1 1 1 0 0 0 0 -0 -0 -0 -0 -0 -1 -1 -1 -1 -1 -1 -1 -1 -1 -1 -2 -2
-2 -1 -2 -1 -0 -1 -1 -0 0 0 0 0 0 0 0 0 -0 -0 -0 -0 -0 -0 -0 -1 -1 -1 -1 -1 -1 -1 -1 -1 -1 -1 -1 -1 -1 -1 -1 -1 -2 -2 -2 -2
-3 -3 -3 -2 -2 -2 -1 -1 -0 -0 -0 -0 -0 -0 -0 -0 -1 -1 -1 -1 -1 -1 -1 -1 -1 -2 -1 -1 -1 -2 -2 -2 -2 -2 -2 -2 -2 -2 -2 -2 -2 -2 -2 -2
-3 -3 -3 -3 -3 -2 -1 -1 -1 -0 -0 -0 -1 -1 -1 -1 -1 -1 -2 -2 -2 -2 -2 -2 -2 -2 -2 -2 -2 -2 -2 -3 -3 -2 -2 -2 -2 -2 -2 -2 -2 -3 -2 -3
-5 -4 -3 -3 -3 -3 -2 -1 -1 -1 -1 -1 -2 -2 -2 -2 -2 -2 -2 -2 -3 -2 -2 -3 -3 -3 -2 -3 -2 -2 -3 -3 -3 -3 -3 -3 -3 -3 -3 -3 -3 -3 -3 -3
Wind_Speed
3 3 8 11 10 3 5 6 5 4 1 3 8 12 14 8 6 8 8 8 8 9 7 5 5 5 5 4 5 5 4 3 2 1 1 1 2 2 2 2 3 3 3 2
3 7 8 5 6 3 3 3 3 3 1 2 6 11 12 9 8 9 9 9 9 7 5 5 5 5 6 6 5 5 5 4 3 2 2 2 2 2 3 3 3 4 4 4
9 4 5 7 6 6 6 6 5 3 3 2 5 9 7 5 4 5 7 7 8 9 9 7 6 7 6 6 7 6 5 5 4 3 1 0 1 1 2 2 3 3 4 5
6 4 4 6 7 8 7 5 5 3 0 4 2 5 7 5 5 5 6 6 7 8 7 7 7 7 7 7 6 5 5 4 4 3 3 3 2 3 4 3 4 5 5 6
6 5 6 7 7 8 5 3 4 3 3 2 1 3 9 4 6 7 6 6 6 6 7 8 7 7 6 5 5 4 4 4 4 4 4 4 4 4 3 3 5 5 5 6
4 3 5 6 3 7 7 6 6 5 4 4 5 6 8 5 7 5 5 5 5 4 5 5 5 4 3 3 3 3 4 4 4 4 4 5 6 5 5 5 5 5 5 5
4 3 2 4 5 4 5 6 3 2 1 7 3 5 10 8 6 6 5 4 3 4 4 5 4 4 4 4 4 3 4 5 4 4 5 6 6 6 6 6 6 6 5 5
7 6 7 5 6 8 7 8 8 7 6 5 2 8 8 6 6 5 4 2 2 3 4 5 5 5 5 5 4 4 4 4 4 5 5 5 5 5 5 6 6 7 6 7
8 6 1 3 3 10 7 6 6 6 2 2 6 7 9 4 3 1 1 1 2 3 4 4 4 4 4 4 4 4 4 4 4 5 5 5 5 5 6 7 6 6 7 7
6 4 1 2 4 2 6 8 6 6 6 5 6 6 5 5 4 2 1 2 2 2 3 3 3 3 3 3 3 3 4 5 4 4 4 5 5 6 6 6 7 8 8 8
4 4 1 2 6 8 6 5 5 5 5 6 4 7 5 6 4 3 4 3 3 3 3 3 2 2 2 1 1 2 3 3 4 4 4 5 5 6 6 6 8 8 8 8
4 4 3 4 2 2 4 7 7 6 5 5 4 7 3 3 3 2 3 3 2 2 2 2 1 1 1 2 2 2 3 3 4 4 4 5 5 5 6 7 8 8 9 9
5 5 3 1 1 0 2 4 4 4 4 6 6 7 3 2 2 1 2 2 2 1 1 0 1 1 2 2 3 3 3 4 4 4 4 5 5 6 7 8 8 8 9 9
3 4 6 9 5 5 4 5 6 6 5 6 8 7 6 5 4 3 3 2 2 1 1 1 2 2 3 3 3 3 3 3 3 3 4 5 6 7 7 8 8 8 8 8
3 3 3 3 2 3 5 7 9 10 10 9 8 9 10 7 5 4 3 2 1 2 2 2 3 3 3 3 3 3 3 4 4 3 4 6 7 6 7 7 7 7 7 8
2 2 2 2 2 3 4 7 11 11 10 10 8 10 7 5 2 3 3 3 3 4 4 3 3 3 4 4 3 4 4 4 4 4 5 6 6 7 7 7 7 7 8 8
2 3 2 2 1 1 7 9 12 8 8 9 12 10 3 3 4 5 5 5 5 5 4 4 4 4 4 3 3 4 4 4 4 5 6 6 7 7 7 8 7 8 8 8
4 4 3 2 2 7 7 3 6 9 8 8 6 4 4 5 5 4 4 4 4 3 4 4 3 3 3 3 4 4 4 4 5 6 7 7 7 8 8 7 8 8 8 8
4 5 3 3 4 7 6 2 3 5 5 5 7 5 3 1 2 3 2 1 2 3 3 3 3 3 3 3 3 4 5 5 5 6 7 7 7 8 8 8 9 8 7 8
3 3 3 3 4 6 4 2 1 3 3 2 4 4 2 1 2 5 3 2 2 3 2 2 3 2 3 4 3 3 5 5 6 7 8 7 7 7 8 8 8 7 7 8
3 3 4 4 5 6 5 3 2 4 5 2 1 3 3 4 5 4 3 3 3 3 3 2 2 2 3 4 3 4 5 6 7 8 8 7 7 7 7 7 7 7 8 8
6 5 5 4 4 7 2 2 3 4 1 1 1 1 2 3 2 2 2 3 3 3 3 3 3 4 4 4 3 5 7 7 7 7 7 7 7 7 7 7 8 7 7 8
5 6 5 7 6 2 1 2 2 1 1 1 2 2 1 2 3 3 3 3 3 4 4 3 3 5 5 4 3 6 8 7 7 7 8 8 8 7 7 7 8 7 6 6
3 1 2 3 4 3 2 2 1 1 1 2 2 2 1 2 4 4 4 4 4 4 4 4 4 5 6 6 5 6 7 7 7 8 8 8 8 8 7 6 6 6 6 7
4 3 2 4 4 3 2 2 2 2 2 2 2 2 3 3 4 4 4 4 5 5 4 4 4 6 7 7 6 6 6 6 7 8 8 8 7 7 7 7 6 7 7 7
3 5 5 5 4 3 4 3 2 2 3 3 3 4 3 2 3 4 4 4 4 5 5 5 5 6 7 7 7 7 6 5 6 7 7 7 6 6 6 6 8 9 9 13
Wind_Direction
117 134 202 205 195 176 164 175 212 242 234 200 241 261 271 269 247 245 239 227 223 228 232 210 200 187 173 174 173 174 172 179 154 151 174 221 262 272 276 272 270 277 283 295
111 232 219 163 173 175 155 184 228 282 350 228 278 275 268 255 235 228 228 226 223 223 220 204 194 186 184 185 186 186 190 190 191 194 196 204 223 250 256 267 274 269 272 278
189 213 172 156 165 188 209 199 203 223 349 8 324 298 277 267 241 242 230 221 212 207 208 202 195 197 192 195 196 198 203 203 204 198 167 59 8 327 295 284 275 270 273 273
223 234 156 167 190 176 225 207 181 178 132 294 12 291 284 276 287 260 245 230 220 211 202 196 193 197 201 206 202 203 204 210 208 189 190 203 226 251 252 257 264 275 271 267
221 194 172 191 197 173 181 123 136 142 154 304 254 227 281 297 276 264 247 236 230 211 197 194 195 199 203 200 199 205 206 216 212 205 202 210 235 245 263 271 272 273 272 263
228 216 193 189 154 154 131 85 68 59 83 266 215 193 273 242 230 255 248 236 227 205 196 195 192 187 193 193 197 201 208 225 218 214 215 217 233 251 269 276 275 276 276 272
232 238 212 143 112 130 132 115 69 354 298 247 192 208 250 248 238 237 246 250 227 192 187 191 190 193 199 201 208 209 212 235 236 226 228 228 234 240 249 261 265 272 278 276
186 232 208 185 165 167 180 158 167 193 218 263 204 233 254 262 275 265 253 230 198 192 196 200 203 203 208 211 211 213 221 240 243 239 242 243 242 244 252 254 259 262 264 265
184 221 221 187 156 142 154 189 156 135 138 262 257 276 297 275 281 280 234 159 202 211 210 210 210 211 216 220 224 222 228 245 249 249 254 254 251 251 257 262 261 265 265 269
161 191 230 159 101 52 152 144 127 147 170 235 274 262 254 265 249 252 237 241 244 222 224 226 226 226 230 233 241 241 236 244 253 253 255 265 260 257 259 266 268 268 270 270
151 157 161 160 188 176 139 149 147 142 164 175 242 264 227 222 226 225 244 252 241 228 229 233 246 247 244 255 248 250 261 269 275 270 268 270 271 269 268 268 268 270 273 273
149 137 194 234 277 193 171 168 151 166 210 190 193 265 284 225 255 258 268 273 261 242 236 238 259 297 304 285 283 271 272 277 281 281 278 274 278 280 276 274 276 275 274 273
147 143 126 1 332 126 194 180 165 132 129 166 184 256 310 1 343 309 277 275 273 262 262 286 296 278 274 277 278 275 274 277 288 293 289 288 289 286 281 279 279 278 275 276
131 159 187 198 209 178 201 204 177 157 184 206 220 247 293 311 317 321 308 292 285 274 264 265 282 278 278 278 273 276 286 291 297 298 296 295 291 288 286 286 285 282 281 281
123 188 208 242 237 176 201 200 190 200 202 205 225 228 253 260 259 259 255 267 291 292 289 279 285 290 298 302 301 298 300 306 309 310 304 295 294 291 290 291 291 291 289 288
112 173 171 251 231 215 242 224 210 220 222 230 247 256 250 260 251 254 251 251 263 271 278 285 289 297 300 294 297 307 310 311 314 305 297 299 301 299 295 294 295 296 294 292
165 142 147 232 303 38 256 223 206 208 209 203 230 243 229 253 253 247 247 249 255 268 276 278 284 282 283 286 291 295 299 309 311 301 299 301 302 300 296 296 299 295 293 292
160 141 146 157 119 228 245 218 202 215 229 216 227 239 221 233 256 262 248 236 252 275 286 296 300 299 298 301 305 306 310 312 307 303 302 304 305 303 302 302 299 296 294 293
177 155 155 166 214 269 291 260 178 198 247 223 226 242 243 259 330 306 288 222 246 264 275 280 288 294 302 305 308 316 315 313 309 304 304 305 305 305 304 303 300 300 299 299
147 155 161 170 198 234 258 284 220 133 271 279 213 228 225 99 277 275 300 321 306 307 299 298 313 321 314 308 316 317 310 311 305 303 303 304 302 301 298 296 298 299 298 296
158 169 191 196 222 257 268 292 126 167 245 305 218 215 197 211 232 266 303 319 321 322 317 320 330 319 301 305 318 312 308 301 299 304 307 306 304 301 294 295 298 299 299 300
177 175 188 173 211 250 300 114 174 221 281 328 322 255 233 253 275 299 312 318 325 329 333 333 327 313 309 310 313 307 301 299 306 309 309 306 305 304 304 300 301 300 299 302
199 192 189 195 214 244 188 200 235 208 219 289 295 294 269 278 286 296 301 305 308 315 318 315 305 307 309 306 296 294 298 306 310 310 308 305 306 303 300 295 297 300 298 299
258 191 171 236 258 252 263 277 300 262 240 279 288 293 284 277 282 290 301 306 306 307 305 305 306 304 304 305 299 288 298 307 309 307 307 307 306 306 304 297 293 293 295 296
220 177 194 244 271 301 286 258 263 291 301 313 312 297 281 278 287 287 296 301 300 302 300 297 292 292 296 302 301 301 302 307 308 306 306 308 305 299 302 301 295 293 285 285
201 182 188 228 231 224 257 266 279 288 295 298 304 312 315 289 283 293 294 296 298 300 303 303 299 297 299 302 302 303 304 302 302 306 308 306 305 306 306 308 312 309 305 307
Height
1460 1465 1465 1463 1465 1466 1468 1472 1472 1470 1468 1469 1469 1465 1458 1456 1457 1456 1456 1457 1458 1460 1464 1466 1469 1471 1473 1474 1476 1477 1478 1479 1480 1480 1480 1480 1480 1480 1480 1479 1479 1478 1477 1476
1463 1463 1458 1461 1464 1466 1468 1470 1471 1469 1468 1469 1468 1464 1455 1452 1451 1450 1451 1452 1453 1456 1459 1462 1464 1466 1468 1470 1472 1474 1475 1476 1477 1477 1478 1478 1477 1477 1477 1476 1475 1475 1474 1473
1457 1456 1455 1459 1463 1466 1468 1470 1470 1470 1469 1469 1469 1461 1453 1447 1446 1446 1446 1447 1449 1451 1454 1457 1459 1462 1464 1467 1469 1471 1472 1473 1474 1475 1475 1474 1474 1473 1473 1472 1471 1471 1470 1469
1456 1454 1455 1457 1460 1462 1466 1465 1467 1469 1473 1477 1474 1473 1455 1448 1446 1443 1442 1442 1443 1446 1449 1452 1455 1458 1461 1463 1466 1468 1469 1470 1471 1471 1471 1471 1470 1469 1469 1468 1467 1467 1466 1465
1453 1452 1453 1455 1456 1458 1462 1464 1468 1471 1475 1479 1477 1478 1458 1449 1445 1441 1439 1439 1439 1442 1445 1449 1452 1455 1458 1460 1463 1464 1466 1467 1468 1468 1468 1467 1466 1466 1465 1464 1463 1462 1462 1461
1450 1449 1450 1450 1453 1455 1461 1467 1473 1479 1480 1481 1474 1477 1459 1450 1441 1437 1436 1436 1437 1440 1443 1446 1449 1453 1455 1457 1459 1461 1462 1463 1464 1464 1464 1463 1462 1462 1460 1459 1458 1457 1456 1455
1450 1449 1448 1448 1453 1457 1459 1468 1480 1481 1488 1479 1472 1470 1454 1440 1437 1435 1434 1435 1436 1438 1441 1443 1446 1449 1452 1454 1456 1457 1458 1459 1460 1460 1459 1459 1458 1457 1456 1455 1454 1452 1451 1450
1451 1451 1446 1446 1448 1453 1457 1459 1472 1476 1478 1473 1472 1468 1447 1436 1434 1433 1433 1434 1435 1437 1439 1441 1444 1446 1449 1451 1453 1454 1455 1455 1455 1455 1455 1454 1454 1453 1451 1450 1449 1447 1446 1444
1447 1446 1443 1443 1443 1447 1455 1459 1461 1473 1478 1476 1469 1462 1446 1433 1433 1432 1432 1433 1433 1435 1437 1440 1442 1444 1447 1448 1450 1451 1451 1451 1451 1451 1450 1450 1449 1448 1446 1445 1444 1442 1440 1439
1441 1447 1443 1443 1443 1446 1448 1454 1464 1470 1471 1466 1458 1457 1447 1435 1432 1432 1432 1432 1433 1434 1436 1438 1440 1443 1445 1446 1447 1448 1448 1448 1447 1447 1446 1445 1444 1443 1441 1440 1438 1436 1434 1433
1439 1446 1446 1444 1444 1446 1451 1454 1456 1465 1467 1467 1462 1449 1436 1433 1431 1432 1431 1431 1432 1433 1435 1437 1439 1441 1442 1443 1444 1444 1445 1444 1443 1443 1442 1441 1439 1438 1436 1435 1433 1431 1429 1427
1437 1444 1449 1445 1443 1442 1443 1447 1453 1458 1466 1470 1465 1450 1430 1431 1431 1431 1431 1431 1432 1433 1434 1436 1437 1439 1439 1440 1441 1441 1441 1440 1439 1438 1437 1436 1434 1433 1431 1429 1427 1425 1423 1421
1435 1442 1448 1446 1448 1446 1445 1447 1449 1454 1463 1471 1466 1446 1431 1430 1430 1430 1430 1430 1430 1431 1433 1434 1435 1436 1437 1437 1437 1437 1437 1437 1436 1434 1432 1431 1429 1427 1425 1423 1421 1419 1416 1414
1431 1438 1439 1438 1436 1441 1445 1446 1448 1450 1455 1460 1454 1441 1433 1430 1430 1430 1430 1430 1430 1431 1432 1432 1433 1433 1434 1434 1434 1433 1433 1432 1431 1429 1428 1426 1424 1422 1420 1418 1415 1413 1410 1407
1431 1436 1437 1436 1435 1437 1437 1439 1443 1444 1442 1445 1441 1440 1432 1430 1430 1430 1429 1429 1429 1430 1430 1430 1430 1431 1431 1430 1430 1429 1429 1428 1426 1425 1423 1421 1419 1417 1415 1412 1409 1406 1404 1401
1432 1435 1436 1436 1434 1435 1435 1435 1436 1436 1436 1437 1436 1435 1429 1428 1428 1428 1428 1428 1428 1428 1428 1428 1428 1428 1427 1427 1426 1425 1424 1423 1422 1420 1418 1417 1414 1412 1409 1406 1403 1401 1398 1395
1434 1436 1438 1439 1438 1435 1436 1429 1429 1430 1428 1430 1430 1426 1426 1427 1426 1426 1426 1425 1425 1426 1426 1426 1425 1425 1425 1424 1423 1421 1420 1419 1418 1416 1414 1412 1409 1406 1404 1401 1398 1395 1392 1388
1433 1436 1440 1443 1441 1439 1424 1421 1421 1422 1423 1424 1423 1422 1423 1423 1423 1423 1423 1423 1423 1423 1423 1423 1422 1422 1421 1421 1419 1418 1417 1415 1413 1412 1409 1407 1405 1402 1399 1396 1393 1390 1386 1383
1428 1433 1439 1441 1440 1434 1424 1420 1421 1422 1422 1421 1421 1421 1421 1422 1422 1421 1421 1421 1422 1421 1421 1420 1420 1419 1418 1417 1416 1414 1413 1411 1409 1407 1405 1402 1400 1397 1394 1391 1388 1384 1381 1377
1428 1431 1437 1439 1437 1432 1422 1419 1418 1420 1423 1419 1418 1419 1420 1421 1425 1421 1419 1419 1419 1419 1418 1417 1417 1416 1415 1414 1413 1411 1409 1407 1405 1403 1400 1398 1395 1392 1389 1386 1383 1380 1376 1372
1430 1432 1434 1436 1435 1429 1421 1418 1417 1424 1422 1418 1417 1417 1418 1419 1420 1419 1417 1417 1417 1416 1415 1414 1413 1412 1411 1410 1409 1407 1405 1403 1401 1398 1396 1393 1390 1388 1385 1381 1378 1375 1371 1367
1426 1430 1433 1435 1434 1429 1419 1418 1421 1420 1417 1417 1416 1416 1417 1417 1416 1416 1416 1415 1414 1413 1412 1411 1410 1409 1408 1407 1405 1403 1401 1399 1397 1394 1391 1388 1386 1383 1380 1377 1374 1370 1367 1363
1423 1422 1423 1424 1422 1418 1417 1416 1416 1417 1416 1416 1416 1415 1415 1415 1414 1414 1413 1413 1412 1411 1410 1408 1407 1406 1405 1404 1402 1400 1397 1395 1392 1389 1387 1384 1381 1378 1376 1372 1369 1365 1362 1359
1421 1419 1421 1421 1418 1416 1416 1415 1415 1415 1415 1415 1415 1414 1413 1413 1412 1412 1411 1410 1409 1408 1407 1405 1404 1402 1401 1400 1398 1396 1394 1391 1388 1385 1382 1379 1376 1373 1371 1368 1365 1362 1358 1355
1417 1418 1419 1418 1416 1414 1413 1414 1414 1414 1414 1413 1413 1412 1412 1411 1410 1409 1408 1407 1406 1404 1403 1402 1401 1399 1397 1396 1394 1392 1390 1387 1384 1380 1378 1375 1372 1369 1366 1364 1361 1358 1355 1353
1414 1416 1417 1415 1413 1413 1412 1412 1412 1412 1411 1411 1410 1409 1409 1408 1407 1406 1405 1404 1402 1401 1400 1398 1397 1395 1393 1391 1389 1388 1385 1383 1379 1376 1373 1370 1367 1365 1362 1359 1356 1354 1352 1349